[[{"header":{"parameterUnit":"m.s-1","parameterCategory":1,"la1":30.2991,"la2":30.254,"lo1":-89.0895,"lo2":-89.0444,"dy":0.0017,"dx":0.0017,"nx":28,"ny":28,"refTime":"2025-04-01T03:00:00:Z","depth":0,"parameterNumber":2,"parameterNumberName":"U-component_of_WINDS"},"data":[0,0,0,0,0,0,0,0,0,0,0,0,0,0,0,0,0,0,0,0,0,0,0,0,0,0,0,0,0,0,0,0,0,0,0,0,0,0,0,0,0,0,0,0,0,0,0,0,0,0,0,0,0,0,0,0,0,0,0.4541,0.4543,0,0.4692,0.4694,0.4696,0.4713,0.4712,0.471,0.4709,0.4868,0.4873,0.4879,0,0,0,0,0,0,0,0,0,0,0,0,0,0.4272,0.4277,0.4541,0.4543,0.4545,0.4692,0.4694,0.4696,0.4713,0.4712,0.471,0.4708,0.4866,0.4873,0.4879,0,0,0,0,0,0,0,0,0,0,0,0,0,0.4402,0.4278,0.454,0.4571,0.4575,0.4692,0.4694,0.4697,0.4714,0.4712,0.4709,0.4707,0.4864,0.4872,0.488,0.4978,0,0,0.4906,0.491,0,0,0,0,0,0,0,0,0.4395,0.4412,0.4564,0.4569,0.4574,0.4681,0.4658,0.4791,0.4714,0.4661,0.4709,0.4706,0.4808,0.4821,0.4854,0.4986,0.4993,0.4907,0.4912,0.4916,0.4918,0,0,0,0,0,0,0,0.4386,0.4406,0.4601,0.4567,0.4572,0.4579,0.4595,0.4683,0.4746,0.4666,0.4667,0.4685,0.481,0.4846,0.4858,0.4995,0.4907,0.4914,0.492,0.4923,0.5218,0.5221,0,0,0,0,0,0,0.4371,0.4398,0.4596,0.4605,0.4477,0.4585,0.4603,0.4649,0.4745,0.4757,0.4687,0.4685,0.4833,0.4848,0.4864,0.4988,0.4916,0.4924,0.4929,0.5216,0.5219,0.5222,0,0,0,0,0,0,0.4365,0.4388,0.459,0.4502,0.4529,0.4592,0.4644,0.4653,0.469,0.476,0.4772,0.4712,0.4832,0.4852,0.495,0.4994,0.4928,0.4935,0.5212,0.5217,0.5221,0.5235,0,0,0,0,0,0,0.4357,0.4386,0.4422,0.4503,0.4533,0.4672,0.4646,0.4658,0.4704,0.4703,0.4787,0.4799,0.4831,0.4938,0.4959,0.5004,0.4942,0.5209,0.5214,0.5219,0.5231,0.5239,0.5246,0,0,0,0,0,0.4347,0.442,0.4424,0.4448,0.458,0.4675,0.4692,0.4727,0.4707,0.4746,0.4791,0.4796,0.4985,0.4948,0.4972,0.502,0.5206,0.5213,0.5219,0.5227,0.5237,0.5246,0,0,0,0,0,0,0.4344,0.4431,0.4437,0.4538,0.4598,0.4677,0.4727,0.4736,0.4804,0.4801,0.4843,0.4862,0.4959,0.4999,0.4956,0.5122,0.5094,0.5105,0.5092,0.5102,0.511,0.5099,0.4949,0,0,0,0,0,0.4355,0.4423,0.4496,0.4578,0.4609,0.4662,0.4705,0.4726,0.4792,0.4818,0.4871,0.4936,0.501,0.5058,0.513,0.5236,0.5257,0.5281,0.5289,0.5295,0.5305,0.5368,0.5381,0.5242,0.5242,0.5242,0,0,0.4379,0.4435,0.4475,0.4579,0.4629,0.4701,0.4684,0.476,0.4815,0.483,0.4927,0.4968,0.5043,0.5146,0.5195,0.5183,0.5347,0.5302,0.5307,0.5314,0.5375,0.5388,0.54,0.5247,0.5246,0.5245,0,0,0.4459,0.4507,0.4582,0.4632,0.4708,0.4743,0.4761,0.4839,0.4867,0.4964,0.4978,0.5044,0.517,0.5224,0.5268,0.537,0.5379,0.5393,0.5433,0.5494,0.5505,0.5515,0.5555,0.5568,0.5402,0.5402,0.5402,0,0.4479,0.4586,0.462,0.4696,0.4743,0.4759,0.4838,0.4885,0.498,0.5013,0.4998,0.5158,0.521,0.5328,0.5353,0.5387,0.5411,0.5384,0.55,0.551,0.552,0.5559,0.5574,0.5403,0.5403,0.5403,0.5403,0,0.461,0.4684,0.4736,0.4827,0.488,0.4956,0.5004,0.5053,0.507,0.5108,0.5209,0.5271,0.5357,0.5386,0.5404,0.5508,0.5499,0.5491,0.5465,0.5534,0.5572,0.5586,0.5406,0.5405,0.5405,0.5404,0,0,0.4693,0.4802,0.4821,0.4864,0.4949,0.5008,0.5087,0.517,0.5213,0.5279,0.5348,0.5455,0.5449,0.5499,0.5523,0.5576,0.5657,0.5562,0.5565,0.5581,0.5781,0.5788,0.5804,0.5662,0.5665,0.5668,0.5775,0,0.4786,0.4925,0.4958,0.5079,0.515,0.5167,0.5236,0.5297,0.5334,0.5402,0.5444,0.552,0.5505,0.5536,0.5588,0.5636,0.5699,0.5628,0.5731,0.5734,0.5714,0.5823,0.5831,0.5929,0.579,0.5792,0.5794,0,0.4912,0.498,0.5108,0.5186,0.5217,0.5278,0.5359,0.5422,0.5492,0.5516,0.5572,0.5591,0.5677,0.5644,0.5764,0.5716,0.5759,0.5789,0.5794,0.5807,0.577,0.5843,0.5961,0.5977,0.5817,0.5815,0.5813,0,0.4965,0.5088,0.5181,0.5217,0.5309,0.5352,0.5393,0.5461,0.551,0.5581,0.5614,0.5693,0.5738,0.5801,0.5842,0.5814,0.596,0.593,0.5986,0.5985,0.6018,0.6016,0.6148,0.6041,0.604,0.604,0.604,0,0.5066,0.5144,0.5206,0.5264,0.5353,0.5391,0.5478,0.552,0.558,0.5648,0.5667,0.5731,0.578,0.5851,0.5884,0.598,0.5999,0.6024,0.6032,0.6024,0.6021,0.6055,0.6051,0.6044,0.6043,0.6042,0.6042,0,0.5141,0.5184,0.5288,0.5367,0.5389,0.5451,0.552,0.5578,0.5616,0.5702,0.5724,0.5785,0.587,0.5916,0.6023,0.6045,0.6154,0.6157,0.613,0.6135,0.6189,0.6184,0.635,0.6376,0.6248,0.6249,0.625,0,0.5204,0.5265,0.535,0.5397,0.5438,0.5512,0.5562,0.5602,0.5654,0.574,0.5789,0.5874,0.5945,0.6081,0.6136,0.6218,0.6226,0.6278,0.6238,0.6229,0.6231,0.6228,0.6236,0.6286,0.6287,0.6288,0.6289,0,0.5313,0.5332,0.5403,0.5482,0.5542,0.5606,0.567,0.5707,0.5759,0.5816,0.5903,0.5958,0.6067,0.6154,0.6241,0.6285,0.6298,0.6301,0.6319,0.6312,0.6296,0.6309,0.6153,0.6297,0.6296,0.6296,0.6295,0.6295,0.5387,0.5442,0.5512,0.5591,0.5643,0.5703,0.5762,0.5808,0.588,0.5972,0.5991,0.6084,0.6155,0.6274,0.632,0.6395,0.6385,0.641,0.6417,0.6424,0.6428,0.6281,0.6411,0.641,0.641,0.641,0.641,0,0.55,0.5545,0.5617,0.5707,0.577,0.5773,0.5845,0.5898,0.5979,0.6043,0.6113,0.6214,0.6299,0.636,0.6447,0.6495,0.6503,0.6517,0.6515,0.6526,0.6429,0.6407,0.6509,0.6509,0.6509,0.6509,0.6509,0.6509,0.5566,0.5662,0.5689,0.5812,0.5858,0.5948,0.5989,0.6046,0.6098,0.621,0.6279,0.6318,0.6384,0.6475,0.6554,0.657,0.6603,0.6616,0.6634,0.6543,0.6533,0.6523,0.6502,0.6622,0.6622,0.6725,0.6726,0.6726]},{"header":{"parameterUnit":"m.s-1","parameterCategory":1,"la1":30.2991,"la2":30.254,"lo1":-89.0895,"lo2":-89.0444,"dy":0.0017,"dx":0.0017,"nx":28,"ny":28,"refTime":"2025-04-01T03:00:00:Z","depth":0,"parameterNumber":3,"parameterNumberName":"V-component_of_WINDS"},"data":[0,0,0,0,0,0,0,0,0,0,0,0,0,0,0,0,0,0,0,0,0,0,0,0,0,0,0,0,0,0,0,0,0,0,0,0,0,0,0,0,0,0,0,0,0,0,0,0,0,0,0,0,0,0,0,0,0,0,-1.6425,-1.6424,0,-1.6382,-1.6381,-1.6381,-1.6408,-1.6409,-1.6411,-1.6412,-1.6359,-1.6356,-1.6353,0,0,0,0,0,0,0,0,0,0,0,0,0,-1.6522,-1.652,-1.6425,-1.6424,-1.6424,-1.6382,-1.6381,-1.6381,-1.6408,-1.6409,-1.6411,-1.6412,-1.6359,-1.6356,-1.6353,0,0,0,0,0,0,0,0,0,0,0,0,0,-1.6479,-1.6519,-1.6425,-1.6433,-1.6433,-1.6382,-1.6381,-1.638,-1.6407,-1.6409,-1.6411,-1.6413,-1.6361,-1.6357,-1.6353,-1.6289,0,0,-1.6341,-1.6339,0,0,0,0,0,0,0,0,-1.6481,-1.6475,-1.6432,-1.6432,-1.6432,-1.6403,-1.6396,-1.635,-1.6407,-1.6417,-1.6412,-1.6414,-1.6371,-1.6366,-1.6354,-1.6287,-1.6284,-1.634,-1.6338,-1.6336,-1.6335,0,0,0,0,0,0,0,-1.6484,-1.6477,-1.6408,-1.6431,-1.6431,-1.6435,-1.6431,-1.6387,-1.6383,-1.6416,-1.6418,-1.6413,-1.6371,-1.6357,-1.6353,-1.6284,-1.634,-1.6337,-1.6335,-1.6333,-1.6159,-1.6157,0,0,0,0,0,0,-1.6488,-1.648,-1.6409,-1.6406,-1.6462,-1.6432,-1.6428,-1.641,-1.6384,-1.6382,-1.6411,-1.6414,-1.6363,-1.6357,-1.6351,-1.6272,-1.6336,-1.6333,-1.633,-1.6161,-1.6158,-1.6156,0,0,0,0,0,0,-1.649,-1.6481,-1.6411,-1.6444,-1.6435,-1.6428,-1.6408,-1.6408,-1.6394,-1.638,-1.6379,-1.6398,-1.6365,-1.6356,-1.6304,-1.6271,-1.6331,-1.6327,-1.6164,-1.616,-1.6157,-1.6115,0,0,0,0,0,0,-1.6493,-1.6482,-1.646,-1.6443,-1.6433,-1.6367,-1.6406,-1.6406,-1.6388,-1.6392,-1.6368,-1.6366,-1.6365,-1.631,-1.63,-1.6266,-1.6324,-1.6167,-1.6162,-1.6158,-1.612,-1.6111,-1.6103,0,0,0,0,0,-1.6496,-1.6449,-1.6459,-1.645,-1.6406,-1.6366,-1.6359,-1.6363,-1.6386,-1.6361,-1.6353,-1.6366,-1.6277,-1.6304,-1.6294,-1.6258,-1.6169,-1.6163,-1.6159,-1.6123,-1.6113,-1.6104,0,0,0,0,0,0,-1.6459,-1.6446,-1.6458,-1.6404,-1.6386,-1.637,-1.634,-1.6352,-1.6325,-1.6329,-1.6332,-1.6326,-1.6271,-1.626,-1.6291,-1.6193,-1.6226,-1.6218,-1.6202,-1.6192,-1.6184,-1.6186,-1.6321,0,0,0,0,0,-1.6445,-1.6416,-1.6406,-1.6359,-1.635,-1.6347,-1.6329,-1.6334,-1.6314,-1.6305,-1.6293,-1.627,-1.6237,-1.6215,-1.6183,-1.6119,-1.6112,-1.6089,-1.6081,-1.6075,-1.6067,-1.6028,-1.6017,-1.6139,-1.6139,-1.6139,0,0,-1.6414,-1.6404,-1.6385,-1.6351,-1.6338,-1.6305,-1.634,-1.6304,-1.6278,-1.6299,-1.6249,-1.6239,-1.6214,-1.6155,-1.6128,-1.6143,-1.6032,-1.6068,-1.6063,-1.6059,-1.6022,-1.601,-1.6,-1.6136,-1.6136,-1.6137,0,0,-1.6342,-1.6333,-1.6292,-1.6278,-1.6259,-1.6257,-1.6247,-1.623,-1.6224,-1.6175,-1.6189,-1.6157,-1.6101,-1.6082,-1.6064,-1.5984,-1.5994,-1.5974,-1.593,-1.5893,-1.5883,-1.5874,-1.5842,-1.583,-1.5967,-1.5967,-1.5967,0,-1.6305,-1.6259,-1.6268,-1.6231,-1.6214,-1.6235,-1.6191,-1.6177,-1.6146,-1.6132,-1.6152,-1.608,-1.6065,-1.5999,-1.598,-1.5967,-1.5952,-1.5975,-1.5884,-1.5876,-1.5868,-1.5836,-1.5825,-1.5964,-1.5965,-1.5965,-1.5965,0,-1.6214,-1.6181,-1.615,-1.6122,-1.6102,-1.6062,-1.6062,-1.604,-1.6046,-1.6041,-1.5989,-1.5972,-1.5936,-1.5922,-1.5927,-1.5856,-1.5866,-1.5885,-1.5917,-1.5853,-1.5824,-1.5812,-1.596,-1.5961,-1.5962,-1.5963,0,0,-1.6113,-1.6093,-1.6081,-1.6068,-1.6048,-1.6021,-1.598,-1.5948,-1.5927,-1.5906,-1.5869,-1.5821,-1.5838,-1.5818,-1.5821,-1.5789,-1.5722,-1.5811,-1.581,-1.5791,-1.5638,-1.5621,-1.5608,-1.573,-1.5728,-1.5726,-1.5639,0,-1.6037,-1.5969,-1.5976,-1.5909,-1.5877,-1.5897,-1.586,-1.5842,-1.5837,-1.5806,-1.5799,-1.5763,-1.579,-1.5778,-1.5747,-1.5736,-1.569,-1.5743,-1.5691,-1.5689,-1.5693,-1.5593,-1.5575,-1.5494,-1.5628,-1.5626,-1.5625,0,-1.5937,-1.5915,-1.5846,-1.5829,-1.5816,-1.5784,-1.5753,-1.5726,-1.5704,-1.5702,-1.5681,-1.5689,-1.5644,-1.568,-1.5615,-1.5651,-1.5631,-1.5622,-1.5619,-1.561,-1.565,-1.5578,-1.5468,-1.5454,-1.5607,-1.5609,-1.561,0,-1.5866,-1.5819,-1.577,-1.5759,-1.574,-1.5716,-1.5706,-1.5687,-1.5667,-1.564,-1.5626,-1.5593,-1.5574,-1.5547,-1.5545,-1.5572,-1.5478,-1.5515,-1.5471,-1.5471,-1.5447,-1.5448,-1.5328,-1.5441,-1.5441,-1.5441,-1.5442,0,-1.5777,-1.5733,-1.5738,-1.5708,-1.5658,-1.5666,-1.5615,-1.5607,-1.559,-1.5556,-1.5572,-1.5539,-1.554,-1.5505,-1.5503,-1.5448,-1.544,-1.5434,-1.5433,-1.543,-1.543,-1.5413,-1.5417,-1.5438,-1.5439,-1.5439,-1.544,0,-1.5687,-1.569,-1.5638,-1.5625,-1.562,-1.5583,-1.557,-1.5539,-1.5537,-1.5493,-1.5483,-1.5476,-1.5436,-1.5433,-1.5386,-1.5384,-1.5315,-1.5323,-1.5323,-1.5323,-1.5277,-1.528,-1.5139,-1.5119,-1.5249,-1.5248,-1.5247,0,-1.5628,-1.5595,-1.5579,-1.5559,-1.5548,-1.5515,-1.5495,-1.5501,-1.5479,-1.5452,-1.5423,-1.5386,-1.5356,-1.529,-1.5278,-1.5242,-1.5245,-1.5199,-1.5239,-1.5237,-1.5239,-1.5239,-1.5234,-1.5189,-1.5188,-1.5187,-1.5186,0,-1.5522,-1.5525,-1.5497,-1.5469,-1.5445,-1.5422,-1.5401,-1.5383,-1.5386,-1.536,-1.5321,-1.5298,-1.5251,-1.5211,-1.5175,-1.5161,-1.5171,-1.5174,-1.5161,-1.5155,-1.5154,-1.515,-1.5297,-1.5176,-1.5177,-1.5177,-1.5178,-1.5178,-1.5442,-1.5413,-1.5396,-1.5364,-1.535,-1.5329,-1.53,-1.5294,-1.5262,-1.5226,-1.5231,-1.5186,-1.5164,-1.5117,-1.51,-1.5063,-1.5078,-1.506,-1.5055,-1.5049,-1.5042,-1.5165,-1.5057,-1.5057,-1.5057,-1.5058,-1.5058,0,-1.5333,-1.5324,-1.5294,-1.5265,-1.5239,-1.5257,-1.5234,-1.5209,-1.5171,-1.5151,-1.5121,-1.5074,-1.5036,-1.5022,-1.4984,-1.4956,-1.496,-1.4945,-1.4945,-1.4941,-1.5033,-1.5046,-1.4943,-1.4943,-1.4943,-1.4943,-1.4943,-1.4943,-1.5272,-1.5222,-1.5223,-1.5164,-1.5155,-1.5114,-1.5098,-1.5078,-1.5062,-1.501,-1.498,-1.4973,-1.4953,-1.4914,-1.4878,-1.4875,-1.4857,-1.484,-1.4838,-1.4923,-1.4935,-1.4945,-1.4958,-1.4837,-1.4837,-1.4748,-1.4747,-1.4746]}]]